Location: Zagreb
(45.8000°N, 16.0000°E)
Time: 23:28:35
(UTC+01:00)

Transit 2A Rocket - Pass Details

Date: 11 October 2020
Orbit: 586 x 916 km, 66.7° (Epoch: 27 October)

Event Time Altitude Azimuth Distance (km) Brightness Sun altitude
Rises 00:00:27 0° 323° (NW) 3,366 8.9 -50.2°
Enters shadow 00:01:31 - 322° (NW) 2,961 8.5 -50.3°
Reaches altitude 10° 00:03:04 10° 319° (NW) 2,378 - -50.3°
Maximum altitude 00:08:18 51° 245° (WSW) 937 - -50.6°
Drops below altitude 10° 00:13:02 10° 170° (S) 2,148 - -50.8°
Sets 00:15:18 0° 165° (SSE) 3,011 - -50.8°
